Regional Weather Roundup
Issued by NWS

Home | Current Version | Previous Version | Graphics & Text | Print | Product List | Glossary On
Versions: 1 2 3 4 5 6 7 8 9 10 11 12 13 14 15 16 17 18 19 20 21 22 23 24 25 26 27 28 29 30 31 32 33 34 35 36 37 38 39 40 41 42 43 44 45 46 47 48 49 50
000
ASUS43 KLOT 301000
RWRIL

ILLINOIS REGIONAL WEATHER ROUNDUP
NATIONAL WEATHER SERVICE CHICAGO/ROMEOVILLE IL
500 AM CDT WED JUL 30 2014

NOTE: "FAIR" INDICATES FEW OR NO CLOUDS BELOW 12,000 FEET WITH NO
SIGNIFICANT WEATHER AND/OR OBSTRUCTIONS TO VISIBILITY.

* THESE STATIONS ARE NOT UNDER NWS QUALITY CONTROL. THEY ALSO MAY NOT
  REPORT WEATHER SUCH AS PRECIPITATION OR FOG.

ILZ001-002-007-009-015-016-024-301100-
NORTHWEST ILLINOIS

CITY           SKY/WX    TMP DP  RH WIND       PRES   REMARKS
MOLINE         CLEAR     57  55  93 SW5       30.04S
STERLING*      PTCLDY    61  55  82 CALM      30.05S
SAVANNA*       MOCLDY    64  58  82 CALM      30.04S
$$

ILZ003-004-008-010-011-017-018-301100-
NORTH CENTRAL ILLINOIS

CITY           SKY/WX    TMP DP  RH WIND       PRES   REMARKS
ROCKFORD       CLOUDY    58  55  90 CALM      30.05R
FREEPORT*      CLOUDY    59  57  94 W3        30.06R
$$

ILZ005-006-012>014-019>023-301100-
NORTHEAST ILLINOIS

CITY           SKY/WX    TMP DP  RH WIND       PRES   REMARKS
CHICAGO-OHARE  PTCLDY    60  53  77 W6        30.01R
CHICAGO-MIDWAY MOCLDY    63  56  78 W5        30.01R
AURORA         CLOUDY    58  55  90 CALM      30.03R
LANSING*       MOCLDY    57  55  91 CALM      30.02R
WAUKEGAN       CLOUDY    59  55  87 W5        30.00R
DUPAGE AIRPORT MOCLDY    60  55  83 CALM      30.01S
WHEELING       CLEAR     60  56  86 CALM      30.02S
NORTHERLY ISL    N/A     63  55  75 W9          N/A
$$

LMZ740>746-301100-
SOUTHERN LAKE MICHIGAN

STATION/POSITION SKY/WX   TEMP    WIND        PRES    VSBY  WAVE
                          AIR SEA DIR/SP/G                  HT/PER
                          (F)     (DEG/KT/KT) (MB)    (MI)  (FT/S)
SOUTHERN BUOY              61 61  240/  6/ 10 1015.5F         1/ 3
WAUKEGAN HARBOR            62     280/  9/ 12   N/A
HARRISON CRIB              64     280/  5/  7   N/A
BURNHAM HARBOR             63     260/  6/ 10   N/A
CALUMET HARBOR             62     250/  3/  4 1015.1R
MICHIGAN CITY              65     260/ 11/ 13   N/A
MICHIGAN CITY 6N           65 68  280/  8/ 10   N/A           1/ 4
ST. JOSEPH                 64 67  270/  6/  8   N/A           1
$$

ILZ025>027-034>036-040-047-049-050-058-095>099-301100-
WEST-CENTRAL ILLINOIS

CITY           SKY/WX    TMP DP  RH WIND       PRES   REMARKS
QUINCY         CLEAR     59  56  89 W3        30.07S
GALESBURG*     CLEAR     56  54  95 CALM      30.05F
MACOMB*        CLEAR     55  55  99 W3        30.08S
$$

ILZ028>032-037-038-041>044-048-051>054-059>061-301100-
CENTRAL ILLINOIS

CITY           SKY/WX    TMP DP  RH WIND       PRES   REMARKS
PONTIAC        PTCLDY    61  59  94 CALM      30.03S
DECATUR        CLEAR     63  57  81 W7        30.06S
PEORIA         CLEAR     62  56  80 W3        30.05S
SPRINGFIELD    CLEAR     58  55  90 W3        30.06F
TAYLORVILLE    NOT AVBL
$$

ILZ033-039-045-046-055>057-062-063-301100-
EAST-CENTRAL ILLINOIS

CITY           SKY/WX    TMP DP  RH WIND       PRES   REMARKS
CHAMPAIGN      PTCLDY    56  55  97 W3        30.05S
MATTOON        CLEAR     60  55  83 W6        30.06R
$$

ILZ079-100>102-301100-
SOUTHWEST ILLINOIS

CITY           SKY/WX    TMP DP  RH WIND       PRES   REMARKS
CAHOKIA*       CLEAR     57  55  93 CALM      30.07S
SPARTA*        CLEAR     55  54  94 CALM      30.09R
$$

ILZ064>066-069>071-074>076-080>082-084>086-088>090-092>094-301100-
SOUTH-CENTRAL ILLINOIS

CITY           SKY/WX    TMP DP  RH WIND       PRES   REMARKS
CARBONDALE     CLEAR     56  54  93 CALM      30.09S
MT. VERNON     CLEAR     55  50  82 CALM      30.09R
SALEM*         CLEAR    N/A N/A N/A CALM      30.08S HAZE
$$

ILZ067-068-072-073-078-083-087-091-301100-
SOUTHEAST ILLINOIS

CITY           SKY/WX    TMP DP  RH WIND       PRES   REMARKS
LAWRENCEVILLE  CLEAR     56  54  93 CALM      30.07S
HARRISBURG*    CLEAR     55  55 100 CALM      30.09S FOG
ROBINSON*      CLEAR     58  56  92 W5        30.08R
CARMI*         CLEAR     57  55  94 CALM      30.07S
$$

ABBREVIATIONS USED IN REMARKS
   TC - TEMPERATURE IN CELSIUS
  WCI - WIND CHILL INDEX
   HX - HEAT INDEX
  VSB - VISIBILITY
$$




USA.gov is the U.S. government's official web portal to all federal, state and local government web resources and services.